www.pogodaiklimat.ru

Погода и климат >> Архив погоды >> Индонезия >> Сабу


ПОГОДА в Сабу

  • Прогноз погоды в Сабу
  • Монитор погоды в Сабу

АРХИВ ПОГОДЫ в Сабу

Время (UTC), дата Ветер
(напр.,м/с)
 
Видим.   Явления Облачность Т
(С)
Тd
(С)
f
(%)
Тe
(С)
Тes
(С)
Комфортность P
(гПа)
Po
(гПа)
Тmin
(С)
Tmax
(С)
R
(мм)
R24
(мм)
S
(см)
09 19.03 СЗ 3 12 км осадки на расстоянии 9/4 420 м
[Cu med, cong Ac As Ci fib]
+30.0 +26.1 80 +45 +46 опасность
перегрева
1005.9 1003.7
12 19.03 СВ 1 4000 м слаб. дождь 9/5 420 м
[Cu med, cong Ac As Ci sp]
+26.3 +25.2 94 +38 +38 очень
душно
1008.0 1005.8 +31.8 6
15 19.03 С 3 5000 м гроза без осадков 9/6 400 м
[Cb cap Ac As Ci sp]
+26.3 +25.1 93 +38 +38 очень
душно
1008.8 1006.6 0.0
18 19.03 С 3 5000 м 9/5 420 м
[Cu med, cong Ac As Ci sp]
+27.2 +26.1 94 +41 +41 опасность
перегрева
1006.5 1004.3
00 20.03 С 2 12 км 6/4 420 м
[Cu med, cong Ac As Ci sp]
+29.0 +26.1 84 +44 +47 опасность
перегрева
1008.8 1006.6 +25.9 4
03 20.03 С 1 14 км 5/1 420 м
[Cu hum Ac trans Ci fib]
+31.4 +26.4 75 +48 +64 опасность
перегрева
1009.2 1007.0
06 20.03 С 4 14 км 4/1 450 м
[Cu hum Ac trans Ci fib]
+31.7 +26.7 75 +49 +57 опасность
перегрева
1007.0 1004.8
09 20.03 С 2 14 км 3/1 480 м
[Cu hum Ac trans Ci fib]
+30.6 +25.2 73 +44 +45 опасность
перегрева
1006.7 1004.5
12 20.03 СВ 2 6000 м 6/1 480 м
[Cu hum Ac As Ci fib]
+28.0 +26.1 89 +42 +42 опасность
перегрева
1009.1 1006.9 +32.0
15 20.03 штиль 0 6000 м 8/3 450 м
[Cu hum Ac As Ci fib]
+28.2 +26.3 89 +43 +43 опасность
перегрева
1010.0 1007.8
18 20.03 СВ 2 6000 м 8/3 450 м
[Cu hum Ac As Ci fib]
+27.6 +26.0 91 +41 +41 опасность
перегрева
1008.0 1005.8
00 21.03 СЗ 2 14 км 3/1 450 м
[Cu hum Ci fib]
+29.4 +26.3 83 +45 +50 опасность
перегрева
1010.0 1007.8 +26.5
03 21.03 СЗ 3 14 км 3/1 450 м
[Cu hum Ci fib]
+31.4 +26.8 77 +49 +65 опасность
перегрева
1009.6 1007.4
06 21.03 С 4 14 км 3/1 450 м
[Cu hum Ci fib]
+31.6 +26.3 74 +48 +58 опасность
перегрева
1007.4 1005.2
09 21.03 С 4 14 км 3/1 450 м
[Cu hum Ci fib]
+30.6 +25.5 74 +45 +45 опасность
перегрева
1006.9 1004.7
12 21.03 С 2 6000 м 3/1 450 м
[Cu hum Ci fib]
+28.6 +25.7 84 +42 +42 опасность
перегрева
1009.3 1007.1 +32.1
15 21.03 СЗ 1 6000 м 3/3 450 м
[Cu hum Ci fib]
+28.7 +26.7 89 +45 +45 опасность
перегрева
1010.8 1008.6
18 21.03 штиль 0 6000 м 3/1 450 м
[Cu hum Ci fib]
+28.5 +26.2 87 +43 +43 опасность
перегрева
1009.5 1007.3
00 22.03 СЗ 3 14 км 5/1 450 м
[Cu hum Ac trans Ci fib]
+30.0 +26.8 83 +47 +50 опасность
перегрева
1010.0 1007.8 +28.2
03 22.03 СЗ 3 14 км 6/1 450 м
[Cu hum Ac trans Ci sp]
+31.4 +26.4 75 +48 +59 опасность
перегрева
1009.7 1007.5
06 22.03 СЗ 3 14 км 6/1 450 м
[Cu hum Ac trans Ci sp]
+31.6 +26.3 74 +48 +56 опасность
перегрева
1007.4 1005.2
09 22.03 СЗ 2 14 км 6/1 450 м
[Cu hum Ac trans Ci sp]
+31.4 +26.2 74 +47 +48 опасность
перегрева
1007.1 1004.9
12 22.03 ЮЗ 1 6000 м 6/1 450 м
[Cu hum Ac trans Ci sp]
+29.1 +26.9 88 +46 +46 опасность
перегрева
1009.0 1006.7 +32.4
15 22.03 штиль 0 6000 м 4/1 450 м
[Cu hum Ac trans Ci sp]
+27.8 +26.1 90 +42 +42 опасность
перегрева
1010.3 1008.1
18 22.03 штиль 0 6000 м гроза без осадков 5/4 420 м
[Cb cap Ac As Ci fib]
+27.0 +25.7 93 +40 +40 очень
душно
1008.5 1006.3 0.0
00 23.03 З 3 14 км 6/3 450 м
[Cu hum Ac As Ci fib]
+29.6 +26.1 82 +45 +48 опасность
перегрева
1009.8 1007.5 +27.0 0.0
03 23.03 СЗ 3 14 км 5/3 450 м
[Cu hum Ac trans Ci fib]
+31.7 +27.1 77 +50 +60 опасность
перегрева
1009.8 1007.6
06 23.03 СЗ 2 14 км 6/3 450 м
[Cu hum Ac trans Ci fib]
+31.7 +26.7 75 +49 +58 опасность
перегрева
1007.9 1005.7
09 23.03 СЗ 3 14 км 9/3 450 м
[Cu med, cong Ac As Ci sp]
+30.4 +26.6 80 +47 +47 опасность
перегрева
1007.2 1005.0
12 23.03 СЗ 3 6000 м 5/3 450 м
[Cu hum Ac trans Ci fib]
+29.0 +26.9 88 +45 +45 опасность
перегрева
1008.7 1006.5 +32.2
15 23.03 З 4 6000 м 4/3 450 м
[Cu hum Ac trans Ci fib]
+28.8 +25.9 84 +43 +43 опасность
перегрева
1009.4 1007.1
18 23.03 СЗ 3 6000 м 6/4 450 м
[Cu hum Ac trans Ci fib]
+28.2 +26.2 89 +43 +43 опасность
перегрева
1007.4 1005.2
00 24.03 12 км 4/1 420 м
[Cu hum Ac trans Ci fib]
+28.9 +25.4 81 1010.2 1008.0 +27.5
03 24.03 З 3 14 км 4/1 420 м
[Cu hum Ac trans Ci fib]
+31.2 +26.7 77 +48 +62 опасность
перегрева
1009.7 1007.5
06 24.03 СЗ 4 н/о 4/1 450 м
[Cu hum Ac trans Ci fib]
+31.8 +26.8 75 +49 +57 опасность
перегрева
1008.0 1005.8
09 24.03 З 6 10 км 6/5 420 м
[Cu med, cong Ac trans Ci fib]
+28.8 +25.0 80 +42 +42 опасность
перегрева
1009.0 1006.8
12 24.03 Ю 1 6000 м {дождь} 5/3 420 м
[Cu med, cong Ac As Ci fib]
+26.2 +24.8 92 +37 +37 очень
душно
1009.9 1007.7 +32.5 3
15 24.03 штиль 0 6000 м 5/1 420 м
[Cu hum Ac As Ci fib]
+26.3 +25.2 94 +38 +38 очень
душно
1010.5 1008.3
18 24.03 штиль 0 6000 м 5/3 420 м
[Cu hum Ac As Ci fib]
+26.0 +24.9 94 +37 +37 очень
душно
1009.2 1007.0
00 25.03 СЗ 2 14 км 4/3 420 м
[Cu hum Ci fib]
+28.9 +26.5 87 +44 +48 опасность
перегрева
1010.8 1008.5 +25.4 3
03 25.03 СЗ 2 14 км 5/4 420 м
[Cu med, cong Ci fib]
+31.4 +27.6 80 +50 +63 опасность
перегрева
1011.5 1009.3
06 25.03 СЗ 1 14 км 5/3 450 м
[Cu hum Ac As Ci fib]
+32.0 +27.3 76 +50 +61 опасность
перегрева
1009.6 1007.4
09 25.03 СЗ 1 12 км 4/3 450 м
[Cu hum Ac trans Ci fib]
+30.5 +26.9 81 +48 +48 опасность
перегрева
1010.3 1008.1
12 25.03 штиль 0 6000 м 4/1 450 м
[Cu hum Ac trans Ci fib]
+28.2 +26.3 89 +43 +43 опасность
перегрева
1011.9 1009.7 +32.2
15 25.03 штиль 0 6000 м 4/1 450 м
[Cu hum Ac trans Ci fib]
+27.0 +25.7 93 +40 +40 очень
душно
1012.4 1010.2
18 25.03 штиль 0 6000 м 4/3 480 м
[Cu hum Ac trans Ci fib]
+26.0 +25.2 95 +37 +37 очень
душно
1011.0 1008.8
00 26.03 С 2 14 км 4/4 420 м
[Cu med, cong Ac trans Ci fib]
+29.2 +26.6 86 +45 +49 опасность
перегрева
1013.1 1010.8 +25.4
03 26.03 З 3 14 км 3/3 450 м
[Cu hum Ac trans Ci fib]
+31.4 +26.4 75 +48 +60 опасность
перегрева
1012.6 1010.4
06 26.03 СЗ 4 14 км 4/4 420 м
[Cu med, cong Ac trans Ci fib]
+32.1 +25.9 70 +48 +53 опасность
перегрева
1010.4 1008.2

 

Местоположение метеостанции Сабу (Индонезия): широта -10.50 долгота 121.83 высота над уровнем моря 26 м.

В архиве по умолчанию представлена погода в Сабу за последнюю неделю. Архивные данные за месяц целиком и за предыдущие месяцы, начиная с января 2011 года, Вы можете получить, выбрав интересующий диапазон дат из раскрывающегося списка и нажав кнопку "Ввод!".


*Определитесь, кто Вы:
робот инопланетянин человек

Внимание! Время в таблицах - всемирное. Для получения местного времени необходимо прибавить поправку, которая равна 8 ч.

Смотрите также архив погоды в соседних городах и на ближайших метеорологических станциях:

Погода на Роти (Индонезия) (138 км)
Погода в Аэропорту Умбу Механг Кунда (Индонезия) (188 км)
Погода в Купанге (Индонезия) (204 км)
Погода в Маумере (Индонезия) (213 км)
Погода в Рутенге (Индонезия) (257 км)
Погода в Ларантуке (Индонезия) (278 км)
Погода на Алоре (Индонезия) (393 км)
Погода в Биме (Индонезия) (406 км)
Погода на Острове Брауз (Западная Австралия, Австралия) (443 км)
Погода в Сумбава-Бесаре (Индонезия) (534 км)

Пояснения к столбцам:

Ветер - указаны скорость ветра в м/с - средняя за 10 мин, порывы в срок и между сроками (в фигурных скобках) и направление, откуда дует ветер: С - северный, СВ - северо-восточный, В - восточный, ЮВ - юго-восточный, Ю - южный, ЮЗ - юго-западный, З - западный, СЗ - северо-западный.
Видимость - горизонтальная дальность видимости в метрах или километрах. При видимости от 1 до 10 км при отсутствии осадков обычно наблюдается дымка, при ухудшении видимости до 1 км и менее - туман. В сухую погоду видимость может ухудшаться дымом, пылью или мглою.
Явления - указаны атмосферные явления, наблюдавшиеся в срок или в последний час перед сроком; фигурными скобками обозначены явления, наблюдавшиеся между сроками (за 1-3 часа до срока); квадратными скобками обозначены град или гололедные отложения с указанием их диаметра в мм.
Облачность - указаны через наклонную черту общая и нижняя облачность в баллах и высота нижней границы облаков в метрах; квадратными скобками обозначены формы облаков: Ci - перистые, Cs - перисто-слоистые, Cc - перисто-кучевые, Ac - высококучевые, As - высокослоистые, Sc - слоисто-кучевые, Ns - слоисто-дождевые, Cu - кучевые, Cb - кучево-дождевые. Подробнее классификацию облаков см. в Атласе облаков (PDF).
T - Температура воздуха - температура, измеренная на высоте 2 м над землей.
Td - Температура точки росы - температура, при понижении до которой содержащийся в воздухе водяной пар достигнет насыщения.
f - Относительная влажность воздуха - влажноcть воздуха, измеренная на высоте 2 м над землей.
Te - Эффективная температура - температура, которую ощущает одетый по сезону человек в тени. Характеристика душности погоды. При расчете учитывается влияние влажности воздуха и скорости ветра на теплоощущения человека.
Tes - Эффективная температура на солнце - температура, которую ощущает человек, с поправкой на солнечный нагрев. Характеристика знойности погоды. Зависит от высоты солнца над горизонтом, облачности и скорости ветра. Ночью, в пасмурную погоду, а также при ветре 12 м/с и более поправка равна нулю.
P - Атмосферное давление - приведенное к уровню моря атмосферное давление.
Po - Атмосферное давление - измеренное на уровне метеостанции атмосферное давление.
Tmin - Минимальная температура - минимум температуры воздуха на высоте 2 м над землей.
Tmax - Максимальная температура - максимум температуры воздуха на высоте 2 м над землей.
R - Количество осадков - Количество выпавших осадков за период времени, мм. При наведении курсора мыши на число - период времени, за который выпало указанное количество осадков.
R24 - Количество осадков - Количество выпавших осадков за 24 часа, мм.
S - Снежный покров - Высота снежного покрова, см. При наведении курсора мыши на число - состояние снежного покрова и степень покрытия местности в баллах.